Weather History for LHPA - November, 2013

Change the Weather History Date:

Monday, November 11, 2013

  Actual Average Record
Temperature  
Mean Temperature 45 °F -  
Max Temperature 48 °F - - ()
Min Temperature 42 °F - - ()
Degree Days  
Heating Degree Days 20    
Moisture  
Dew Point 42 °F    
Average Humidity 88    
Maximum Humidity 100    
Minimum Humidity 76    
Precipitation  
Precipitation 0.00 in - - ()
Sea Level Pressure  
Sea Level Pressure 30.10 in    
Wind  
Wind Speed 17 mph ()    
Max Wind Speed 31 mph    
Max Gust Speed 42 mph    
Visibility 4.7 miles    
Events Rain    
T = Trace of Precipitation, MM = Missing Value Source: Averaged Metar Reports

Daily Weather History Graph

Daily Weather History Graph

Search for Another Location

Airport or City:

Trip Planner

Search our weather history database for the weather conditions in past years. The results will help you decide how hot, cold, wet, or windy it might be!

Date:

Astronomy

Nov. 11, 2013 Rise Set
Actual Time 6:48 AM CET 4:19 PM CET
Civil Twilight 6:15 AM CET 4:52 PM CET
Nautical Twilight 5:38 AM CET 5:28 PM CET
Astronomical Twilight 5:02 AM CET 6:04 PM CET
Moon 1:12 PM CET (11/11) No Moon Set
Length of Visible Light 10h 36m
Length of Day
9h 30m
Waxing Gibbous, 63% of the Moon is Illuminated
Nov 11
Waxing Gibbous
Nov 17
Full
Nov 25
Last Quarter
Dec 3
New
Dec 9
First Quarter

Hourly Weather History & Observations

Time (CET) Temp. Windchill Dew Point Humidity Pressure Visibility Wind Dir Wind Speed Gust Speed Precip Events Conditions
12:15 AM 46.4 °F 41.2 °F 46.4 °F 100% 29.80 in 2.5 mi North 11.2 mph - N/A Rain Rain
12:45 AM 48.2 °F - 48.2 °F 100% 29.80 in 2.5 mi North 11.2 mph - N/A Rain Rain
1:15 AM 48.2 °F - 48.2 °F 100% 29.80 in 2.5 mi North 11.2 mph - N/A Rain Rain
1:45 AM 48.2 °F - 46.4 °F 93% 29.83 in 2.5 mi North 13.4 mph - N/A Rain Rain
2:15 AM 46.4 °F 41.2 °F 46.4 °F 100% 29.83 in 2.5 mi North 11.2 mph - N/A Rain Light Rain
2:45 AM 46.4 °F 40.5 °F 46.4 °F 100% 29.83 in 2.5 mi North 13.4 mph - N/A Rain Light Rain
3:15 AM 46.4 °F 40.5 °F 46.4 °F 100% 29.83 in 2.5 mi North 13.4 mph - N/A Rain Light Rain
3:45 AM 48.2 °F - 46.4 °F 93% 29.86 in 2.5 mi North 13.4 mph - N/A Rain Light Rain
4:15 AM 48.2 °F - 46.4 °F 93% 29.89 in 2.5 mi North 17.9 mph - N/A Rain Light Rain
4:45 AM 46.4 °F 38.9 °F 46.4 °F 100% 29.92 in 3.1 mi North 20.1 mph - N/A Rain Rain
5:15 AM 46.4 °F 39.3 °F 46.4 °F 100% 29.92 in 3.1 mi North 17.9 mph - N/A Rain Rain
5:26 AM 46.4 °F 39.3 °F 46.4 °F 100% 29.92 in 3.1 mi North 17.9 mph 29.1 mph N/A Rain Rain
5:45 AM 46.4 °F 38.9 °F 44.6 °F 93% 29.95 in 3.1 mi North 20.1 mph 31.3 mph N/A Rain Rain
6:03 AM 46.4 °F 38.0 °F 44.6 °F 93% 29.95 in 3.1 mi North 24.6 mph 38.0 mph N/A Rain Rain
6:15 AM 46.4 °F 38.0 °F 44.6 °F 93% 29.98 in 3.1 mi North 24.6 mph - N/A Rain Rain
6:45 AM 46.4 °F 38.9 °F 44.6 °F 93% 29.98 in 3.1 mi North 20.1 mph 33.6 mph N/A Rain Rain
7:15 AM 44.6 °F 36.0 °F 44.6 °F 100% 30.01 in 3.7 mi North 22.4 mph 33.6 mph N/A Rain Rain
7:33 AM 44.6 °F 34.9 °F 42.8 °F 93% 30.01 in 3.7 mi NNW 29.1 mph 40.3 mph N/A Rain Rain
7:45 AM 44.6 °F 35.2 °F 42.8 °F 93% 30.01 in 3.7 mi NNW 26.8 mph 40.3 mph N/A Rain Rain
8:15 AM 44.6 °F 34.5 °F 42.8 °F 93% 30.04 in 3.7 mi NNW 31.3 mph - N/A Rain Rain
8:45 AM 42.8 °F 32.8 °F 42.8 °F 100% 30.04 in 3.7 mi NNW 26.8 mph 40.3 mph N/A Rain Rain
9:15 AM 42.8 °F 32.4 °F 41.0 °F 93% 30.06 in 5.0 mi NNW 29.1 mph 42.5 mph N/A Rain Light Rain
9:45 AM 42.8 °F 32.8 °F 41.0 °F 93% 30.09 in 6.2 mi NNW 26.8 mph 40.3 mph N/A Rain Light Rain
10:15 AM 42.8 °F 33.2 °F 41.0 °F 93% 30.09 in 6.2 mi North 24.6 mph 35.8 mph N/A Rain Light Rain
10:45 AM 42.8 °F 33.2 °F 41.0 °F 93% 30.12 in 6.2 mi NNW 24.6 mph - N/A Rain Light Rain
11:15 AM 42.8 °F 32.8 °F 39.2 °F 87% 30.12 in 6.2 mi NNW 26.8 mph - N/A Rain Light Rain
11:45 AM 42.8 °F 32.8 °F 41.0 °F 93% 30.12 in 6.2 mi NNW 26.8 mph - N/A Rain Light Rain
12:15 PM 44.6 °F 35.2 °F 39.2 °F 81% 30.15 in 6.2 mi NNW 26.8 mph - N/A Rain Light Rain
12:18 PM 42.8 °F 32.8 °F 41.0 °F 93% 30.15 in 6.2 mi NNW 26.8 mph 40.3 mph N/A Rain Light Rain
12:45 PM 44.6 °F 35.2 °F 39.2 °F 81% 30.15 in 6.2 mi NNW 26.8 mph 40.3 mph N/A Rain Light Rain
1:15 PM 44.6 °F 35.2 °F 39.2 °F 81% 30.15 in 6.2 mi NNW 26.8 mph 40.3 mph N/A Rain Light Rain
1:45 PM 44.6 °F 35.2 °F 39.2 °F 81% 30.18 in 6.2 mi North 26.8 mph - N/A Rain Light Rain
2:15 PM 46.4 °F 38.9 °F 39.2 °F 76% 30.18 in 6.2 mi North 20.1 mph - N/A Rain Light Rain
2:45 PM 46.4 °F 38.9 °F 39.2 °F 76% 30.18 in 6.2 mi North 20.1 mph - N/A Rain Light Rain
3:15 PM 46.4 °F 38.9 °F 41.0 °F 81% 30.21 in 6.2 mi North 20.1 mph 31.3 mph N/A Rain Light Rain
3:37 PM 44.6 °F 36.5 °F 39.2 °F 81% 30.21 in 6.2 mi North 20.1 mph - N/A   Overcast
3:45 PM 44.6 °F 37.0 °F 39.2 °F 81% 30.21 in 6.2 mi North 17.9 mph 29.1 mph N/A   Overcast
4:15 PM 44.6 °F 36.0 °F 39.2 °F 81% 30.21 in 6.2 mi North 22.4 mph - N/A   Overcast
4:45 PM 44.6 °F 35.6 °F 39.2 °F 81% 30.24 in 6.2 mi North 24.6 mph - N/A   Overcast
5:15 PM 44.6 °F 36.0 °F 39.2 °F 81% 30.27 in 6.2 mi NNW 22.4 mph - N/A   Overcast
5:45 PM 44.6 °F 37.0 °F 39.2 °F 81% 30.27 in 6.2 mi North 17.9 mph - N/A   Overcast
6:15 PM 44.6 °F 37.0 °F 39.2 °F 81% 30.30 in 6.2 mi North 17.9 mph - N/A   Overcast
6:45 PM 44.6 °F 37.6 °F 39.2 °F 81% 30.30 in 6.2 mi NNW 15.7 mph - N/A   Overcast
7:15 PM 44.6 °F 36.5 °F 39.2 °F 81% 30.30 in 6.2 mi North 20.1 mph - N/A   Overcast
7:45 PM 44.6 °F 37.0 °F 37.4 °F 76% 30.30 in 6.2 mi NNW 17.9 mph - N/A   Overcast
8:15 PM 44.6 °F 37.0 °F 37.4 °F 76% 30.33 in 6.2 mi North 17.9 mph - N/A   Overcast
8:45 PM 44.6 °F 37.6 °F 37.4 °F 76% 30.33 in 6.2 mi North 15.7 mph 26.8 mph N/A   Overcast
9:15 PM 44.6 °F 37.6 °F 37.4 °F 76% 30.33 in - North 15.7 mph - N/A   Clear
9:45 PM 44.6 °F 37.6 °F 37.4 °F 76% 30.33 in - North 15.7 mph - N/A   Clear
10:15 PM 44.6 °F 38.2 °F 37.4 °F 76% 30.33 in - North 13.4 mph - N/A   Clear
10:45 PM 44.6 °F 37.6 °F 37.4 °F 76% 30.33 in - North 15.7 mph - N/A   Clear
11:15 PM 42.8 °F 36.7 °F 37.4 °F 81% 30.36 in - NNW 11.2 mph - N/A   Clear
11:45 PM 42.8 °F 35.9 °F 37.4 °F 81% 30.36 in - NNW 13.4 mph - N/A   Clear